Location: Forst
(46.9333°N, 15.4333°E)
Time: 12:34:23
(UTC+00:00)

RESURS 01 DEB - Visible Passes

Search period start: 20 September 2021 00:00
Search period end: 30 September 2021 00:00
Orbit: 615 x 625 km, 97.9° (Epoch: 18 September)

Date Brightness Start Highest point End Pass type
(mag) Time Alt. Az. Time Alt. Az. Time Alt. Az.
20 Sep ? 18:50:20 44° ESE 18:51:05 50° ENE 18:55:17 10° N visible
20 Sep ? 20:27:30 18° W 20:27:30 18° W 20:30:25 10° NW visible
21 Sep ? 19:08:00 70° ESE 19:08:22 76° ENE 19:12:41 10° N visible
21 Sep ? 20:45:11 12° W 20:45:11 12° W 20:46:37 10° WNW visible
22 Sep ? 17:48:30 12° E 17:50:06 14° ENE 17:52:24 10° NNE visible
22 Sep ? 19:25:40 72° WSW 19:25:40 72° WSW 19:30:00 10° NNW visible
23 Sep ? 18:06:10 18° E 18:07:13 20° ENE 18:10:22 10° NNE visible
23 Sep ? 19:43:20 46° W 19:43:20 46° W 19:47:13 10° NNW visible
24 Sep ? 18:23:48 27° E 18:24:22 28° ENE 18:28:04 10° N visible
24 Sep ? 20:00:58 30° W 20:00:58 30° W 20:04:17 10° NNW visible
25 Sep ? 18:41:26 40° ENE 18:41:33 40° ENE 18:45:36 10° N visible
25 Sep ? 20:18:36 21° WNW 20:18:36 21° WNW 20:21:11 10° NW visible
26 Sep ? 18:59:04 58° NE 18:59:04 58° NE 19:03:01 10° N visible
26 Sep ? 20:36:14 14° WNW 20:36:14 14° WNW 20:37:44 10° NW visible
27 Sep ? 17:39:29 11° ENE 17:40:33 12° ENE 17:42:03 10° NE visible
27 Sep ? 19:16:40 63° NNW 19:16:40 63° NNW 19:20:20 10° NNW visible
28 Sep ? 17:57:05 16° ENE 17:57:36 16° ENE 18:00:18 10° NNE visible
28 Sep ? 19:34:16 46° NW 19:34:16 46° NW 19:37:32 10° NNW visible
29 Sep ? 18:14:41 23° ENE 18:14:41 23° ENE 18:18:04 10° NNE visible
29 Sep ? 19:51:52 31° WNW 19:51:52 31° WNW 19:54:38 10° NNW visible
